Weather reports worldwide

Advertisment
Jativa, Spain (8290): temperature & dewpoint: 09.09.2019 10:00:00 - 15.09.2019 10:00:00 (CEST)Jativa, Spain (8290): wind speed & gusts: 09.09.2019 10:00:00 - 15.09.2019 10:00:00 (CEST)Jativa, Spain (8290): wind direction: 09.09.2019 10:00:00 - 15.09.2019 10:00:00 (CEST)Jativa, Spain (8290): reduced air pressure: 09.09.2019 10:00:00 - 15.09.2019 10:00:00 (CEST)Jativa, Spain (8290): visibility: 09.09.2019 10:00:00 - 15.09.2019 10:00:00 (CEST)Jativa, Spain (8290): sunshine duration: 09.09.2019 10:00:00 - 15.09.2019 10:00:00 (CEST)Jativa, Spain (8290): precipitation: 09.09.2019 10:00:00 - 15.09.2019 10:00:00 (CEST)
Date & Time tt [°C] td [°C] ff [km/h] ff [kn] fx [km/h] fx [kn] dd ppp [hPa] vv [km] sd [min] rr [mm]
15.09.2019 10:00:00 - - - - - - - - - - -
15.09.2019 09:00:00 21,0 19,8 10 5 20 11 NNE 1019,8 6 0 0,2
15.09.2019 08:00:00 20,8 19,4 7 4 25 14 NNE 1019,8 8 0 -
15.09.2019 07:00:00 21,1 19,4 11 6 27 14 NE 1019,6 17 0 0,0
15.09.2019 06:00:00 21,1 19,6 10 5 24 13 NNE 1019,4 7 0 0,2
15.09.2019 05:00:00 21,2 19,5 10 6 21 11 N 1019,5 12 0 0,0
15.09.2019 04:00:00 21,2 19,7 10 5 25 13 NNE 1020,2 11 0 0,0
15.09.2019 03:00:00 21,4 20,1 9 5 18 10 N 1021,2 9 0 0,0
15.09.2019 02:00:00 21,6 20,4 3 2 12 6 N 1021,9 7 0 -
15.09.2019 01:00:00 21,6 20,6 6 4 18 10 ENE 1021,9 7 0 0,0
15.09.2019 00:00:00 21,6 20,6 10 6 22 12 N 1021,7 7 0 0,0
14.09.2019 23:00:00 21,5 20,5 2 1 8 5 WNW 1021,7 4,5 0 0,0
14.09.2019 22:00:00 21,5 20,5 3 2 18 10 SE 1022,2 7 0 0,2
14.09.2019 21:00:00 21,9 20,9 11 6 24 13 NNE 1021,0 2,6 0 0,2
14.09.2019 20:00:00 22,0 20,8 8 5 16 8 N 1020,3 6 0 -
14.09.2019 19:00:00 21,5 20,1 2 1 12 6 ESE 1020,8 8 0 0,2
14.09.2019 18:00:00 22,0 19,7 9 5 20 11 NNE 1021,3 9 0 0,0
14.09.2019 17:00:00 22,9 18,8 11 6 26 14 NNE 1021,2 18 0 0,0
14.09.2019 16:00:00 23,4 18,7 13 7 27 14 NNE 1021,5 19 0 0,0
14.09.2019 15:00:00 23,1 17,5 14 7 23 12 NNE 1022,5 20 0 0,0
14.09.2019 14:00:00 23,1 16,9 13 7 23 12 NNE 1023,1 20 0 -
14.09.2019 13:00:00 23,4 16,9 3 2 12 6 ENE 1023,4 20 43 0,0
14.09.2019 12:00:00 22,5 16,7 3 2 12 7 E 1023,6 20 52 0,0
14.09.2019 11:00:00 20,3 16,7 4 2 9 5 W 1023,8 20 33 0,0
14.09.2019 10:00:00 18,4 16,7 3 2 13 7 SSE 1023,9 20 0 0,0
14.09.2019 09:00:00 17,6 16,5 5 3 13 7 N 1023,2 11 0 0,0
14.09.2019 08:00:00 17,1 16,0 3 2 47 25 SSW 1023,9 20 0 -
14.09.2019 07:00:00 17,4 16,0 12 7 48 26 WNW 1024,8 5 0 8,0
14.09.2019 06:00:00 19,4 17,2 5 3 10 6 W 1024,1 20 0 0,0
14.09.2019 05:00:00 19,6 16,2 4 2 12 6 W 1024,2 20 0 0,0
14.09.2019 04:00:00 19,2 17,7 7 4 18 10 W 1024,5 20 0 0,0
14.09.2019 03:00:00 19,3 17,8 8 5 16 8 WSW 1024,7 17 0 0,0
14.09.2019 02:00:00 19,3 18,2 4 2 8 5 ENE 1024,2 17 0 -
14.09.2019 01:00:00 19,4 18,4 5 3 13 7 N 1024,9 11 0 0,0
14.09.2019 00:00:00 19,5 18,5 8 4 14 7 N 1025,4 8 0 0,0
13.09.2019 23:00:00 18,8 17,5 5 3 11 6 W 1025,5 11 0 0,0
13.09.2019 22:00:00 19,2 17,7 7 4 10 5 WSW 1025,5 15 0 0,0
13.09.2019 21:00:00 19,8 17,8 4 2 14 7 WSW 1024,6 16 0 0,0
13.09.2019 20:00:00 20,5 17,9 7 4 26 14 ESE 1023,3 20 0 -
13.09.2019 19:00:00 21,1 18,5 14 7 43 23 ENE 1023,2 18 0 2,0
13.09.2019 18:00:00 20,8 20,0 12 6 27 15 NE 1023,0 1,6 0 4,6
13.09.2019 17:00:00 20,9 19,7 18 10 29 16 N 1022,7 6 0 0,2
13.09.2019 16:00:00 22,1 19,5 9 5 36 19 N 1022,8 17 0 0,0
13.09.2019 15:00:00 23,2 18,9 17 9 32 17 ENE 1023,2 20 0 0,0
13.09.2019 14:00:00 23,5 20,5 18 10 36 20 ENE 1023,1 20 17 -
13.09.2019 13:00:00 24,0 21,1 14 8 26 14 ENE 1022,9 18 12 0,0
13.09.2019 12:00:00 22,7 21,8 4 2 10 5 NNW 1022,3 20 12 4,6
13.09.2019 11:00:00 21,6 20,4 8 4 36 19 ENE 1021,5 4,3 0 6,0
13.09.2019 10:00:00 21,6 19,9 21 11 41 22 E 1021,6 3,0 0 2,8
13.09.2019 09:00:00 20,6 19,4 15 8 35 19 NE 1020,7 11 0 3,4
13.09.2019 08:00:00 21,0 18,5 19 10 29 16 N 1021,2 13 0 -
13.09.2019 07:00:00 19,8 17,1 16 8 34 19 N 1021,8 20 0 0,0
13.09.2019 06:00:00 19,6 17,2 16 9 29 15 N 1022,6 15 0 0,4
13.09.2019 05:00:00 21,1 16,9 18 10 31 17 N 1022,7 20 0 0,0
13.09.2019 04:00:00 20,7 17,3 6 3 16 8 NNE 1024,0 20 0 0,0
13.09.2019 03:00:00 20,5 16,3 6 3 19 11 NW 1024,5 20 0 0,0
13.09.2019 02:00:00 20,2 16,2 9 5 17 9 NW 1024,4 19 0 -
13.09.2019 01:00:00 20,2 16,8 4 2 16 9 NW 1025,4 19 0 0,0
13.09.2019 00:00:00 20,3 16,9 9 5 16 9 NNE 1025,6 18 0 0,0
12.09.2019 23:00:00 20,6 16,8 5 3 17 9 N 1026,0 19 0 0,0
12.09.2019 22:00:00 20,7 16,6 10 6 17 9 N 1026,0 19 0 0,0
12.09.2019 21:00:00 21,3 16,0 6 4 63 34 NNE 1025,7 19 0 0,0
12.09.2019 20:00:00 22,3 15,2 11 6 26 14 NE 1025,3 20 0 -
12.09.2019 19:00:00 23,6 15,6 15 8 33 18 NE 1025,1 20 15 0,0
12.09.2019 18:00:00 23,7 15,7 17 9 34 18 NE 1025,0 20 17 0,0
12.09.2019 17:00:00 22,8 19,0 9 5 19 11 N 1025,1 19 2 0,0
12.09.2019 16:00:00 21,1 17,5 11 6 30 16 NNW 1025,3 20 0 0,2
12.09.2019 15:00:00 21,0 17,8 18 10 31 17 NNW 1025,4 18 0 0,0
12.09.2019 14:00:00 21,4 18,8 14 8 26 14 NNE 1024,8 15 0 -
12.09.2019 13:00:00 21,0 18,5 12 7 29 15 NE 1025,6 20 0 0,4
12.09.2019 12:00:00 19,6 18,2 12 7 42 23 ENE 1026,4 6 0 1,8
12.09.2019 11:00:00 19,8 18,6 13 7 28 15 NE 1025,6 20 0 1,2
12.09.2019 10:00:00 19,8 18,3 13 7 49 27 ENE 1024,2 6 0 5,2
12.09.2019 09:00:00 19,9 18,2 26 14 56 30 NE 1023,1 4,0 0 2,0
12.09.2019 08:00:00 20,1 18,1 20 11 48 26 NE 1021,6 18 0 -
12.09.2019 07:00:00 19,5 18,5 10 6 48 26 NE 1020,7 5 0 5,2
12.09.2019 06:00:00 20,3 17,7 22 12 46 25 NE 1021,1 13 0 0,0
12.09.2019 05:00:00 20,8 17,8 27 15 69 37 NE 1021,0 18 0 0,0
12.09.2019 04:00:00 20,6 18,0 16 9 51 28 NE 1020,3 20 0 0,4
12.09.2019 03:00:00 18,4 17,6 20 11 40 22 N 1020,1 6 0 11,2
12.09.2019 02:00:00 18,0 17,2 4 2 28 15 N 1021,2 3,2 0 -
12.09.2019 01:00:00 17,4 16,2 9 5 17 9 W 1020,9 14 0 0,8
12.09.2019 00:00:00 17,0 15,7 6 3 15 8 WNW 1022,1 20 0 2,4
11.09.2019 23:00:00 17,4 15,5 7 4 16 9 W 1022,2 12 0 2,2
11.09.2019 22:00:00 18,0 13,9 4 2 20 11 SW 1022,2 20 0 0,0
11.09.2019 21:00:00 18,2 15,4 12 7 53 29 NNW 1022,0 20 0 0,0
11.09.2019 20:00:00 19,0 16,0 13 7 30 16 NNW 1021,2 19 0 -
11.09.2019 19:00:00 19,9 16,0 16 9 41 22 N 1020,3 20 1 0,0
11.09.2019 18:00:00 20,3 16,1 11 6 31 17 N 1019,8 20 24 0,0
11.09.2019 17:00:00 19,8 15,6 13 7 39 21 N 1019,4 20 25 0,0
11.09.2019 16:00:00 19,2 15,1 24 13 39 21 NNW 1018,8 20 19 0,0
11.09.2019 15:00:00 19,6 16,8 11 6 27 15 N 1018,4 20 0 0,0
11.09.2019 14:00:00 17,1 15,3 9 5 16 9 NNW 1018,8 20 0 -
11.09.2019 13:00:00 15,9 14,4 12 7 23 12 NW 1018,4 17 0 4,6
11.09.2019 12:00:00 15,9 14,0 13 7 36 19 NNE 1018,3 1,6 0 2,6
11.09.2019 11:00:00 17,1 13,3 16 9 34 18 N 1016,7 20 0 0,0
11.09.2019 10:00:00 16,0 13,5 9 5 23 12 N 1015,5 20 0 0,0
11.09.2019 09:00:00 14,5 12,8 10 6 23 12 W 1014,6 20 0 2,0
11.09.2019 08:00:00 15,1 12,0 8 4 15 8 SSW 1014,6 7 0 -
11.09.2019 07:00:00 16,0 10,5 10 6 23 13 NW 1013,8 20 0 0,6
11.09.2019 06:00:00 17,3 7,8 11 6 24 13 NNW 1013,7 20 0 0,0
11.09.2019 05:00:00 17,8 8,1 12 7 34 18 N 1013,8 20 0 0,0
11.09.2019 04:00:00 18,5 5,9 12 6 22 12 NNW 1014,2 20 0 0,0
11.09.2019 03:00:00 18,1 5,3 6 3 14 8 WSW 1014,0 20 0 0,0
11.09.2019 02:00:00 17,3 5,0 6 3 16 9 WSW 1013,9 20 0 -
11.09.2019 01:00:00 17,9 4,1 9 5 21 12 W 1014,2 20 0 0,0
11.09.2019 00:00:00 19,2 4,1 11 6 24 13 WNW 1013,7 20 0 0,0
10.09.2019 23:00:00 19,7 3,0 13 7 26 14 WNW 1013,3 20 0 0,0
10.09.2019 22:00:00 19,5 4,8 3 1 19 11 WSW 1012,6 20 0 0,0
10.09.2019 21:00:00 21,7 3,8 14 8 44 24 N 1012,1 20 0 0,0
10.09.2019 20:00:00 23,2 0,9 11 6 29 16 N 1010,6 20 0 -
10.09.2019 19:00:00 24,4 0,0 18 10 46 25 N 1009,6 20 0 0,0
10.09.2019 18:00:00 25,5 0,9 19 10 48 26 N 1009,4 20 36 0,0
10.09.2019 17:00:00 27,3 -0,7 22 12 44 24 NNW 1009,0 20 60 0,0
10.09.2019 16:00:00 27,5 -0,5 25 14 45 25 N 1008,7 17 60 0,0
10.09.2019 15:00:00 27,1 3,6 23 12 50 27 NNW 1008,9 20 58 0,0
10.09.2019 14:00:00 23,3 9,3 13 7 44 24 NNE 1009,5 20 21 -
10.09.2019 13:00:00 25,4 9,7 14 8 27 14 NNE 1009,2 20 19 0,0
10.09.2019 12:00:00 25,6 7,3 17 9 - - N 1009,5 20 - -
10.09.2019 11:00:00 - - - - - - - - - - -
10.09.2019 10:00:00 - - - - - - - - - - -
10.09.2019 09:00:00 - - - - - - - - - - -
10.09.2019 08:00:00 - - - - - - - - - - -
10.09.2019 07:00:00 - - - - - - - - - - -
10.09.2019 06:00:00 - - - - - - - - - - -
10.09.2019 05:00:00 - - - - - - - - - - -
10.09.2019 04:00:00 - - - - - - - - - - -
10.09.2019 03:00:00 - - - - - - - - - - -
10.09.2019 02:00:00 - - - - - - - - - - -
10.09.2019 01:00:00 - - - - - - - - - - -
10.09.2019 00:00:00 - - - - - - - - - - -
09.09.2019 23:00:00 - - - - - - - - - - -
09.09.2019 22:00:00 - - - - - - - - - - -
09.09.2019 21:00:00 - - - - - - - - - - -
09.09.2019 20:00:00 - - - - - - - - - - -
09.09.2019 19:00:00 - - - - - - - - - - -
09.09.2019 18:00:00 - - - - - - - - - - -
09.09.2019 17:00:00 - - - - - - - - - - -
09.09.2019 16:00:00 - - - - - - - - - - -
09.09.2019 15:00:00 - - - - - - - - - - -
09.09.2019 14:00:00 - - - - - - - - - - -
09.09.2019 13:00:00 - - - - - - - - - - -
09.09.2019 12:00:00 - - - - - - - - - - -
09.09.2019 11:00:00 - - - - - - - - - - -
09.09.2019 10:00:00 - - - - - - - - - - -

tt = temperature
td = dewpoint
ff = wind speed
fx = gusts
dd = wind direction
ppp = reduced air pressure
vv = visibility
sd = sunshine duration
rr = precipitation

Next stations